This is the latest recevied weather packets stored in our database for station/object MB7UUE. If no packets are shown the sender has not sent any weather packets the latest 10 day(s).
| Time | Temp. | Humidity | Pressure | Rain* | Wind** | Luminosity | Snow |
|---|---|---|---|---|---|---|---|
| 1778230092 | 15° C | 64% | 1017 hPa | 0 mm | - | - | - |
| 1778228951 | 15° C | 65% | 1017 hPa | 0 mm | - | - | - |
| 1778227812 | 15° C | 68% | 1017 hPa | 0 mm | - | - | - |
| 1778226671 | 14.44° C | 73% | 1017 hPa | 0 mm | - | - | - |
| 1778225532 | 13.33° C | 77% | 1017.1 hPa | 0 mm | - | - | - |
| 1778224392 | 13.33° C | 86% | 1017.1 hPa | 0 mm | - | - | - |
| 1778223251 | 12.22° C | 86% | 1017 hPa | 0 mm | - | - | - |
| 1778222111 | 11.11° C | 86% | 1016.9 hPa | 0 mm | - | - | - |
| 1778220972 | 9.44° C | 86% | 1016.8 hPa | 0 mm | - | - | - |
| 1778219832 | 8.89° C | 85% | 1016.7 hPa | 0 mm | - | - | - |
| 1778218692 | 7.78° C | 83% | 1016.6 hPa | 0 mm | - | - | - |
| 1778217600 | 6.67° C | 83% | 1016.5 hPa | 0 mm | - | - | - |
| 1778216459 | 6.11° C | 83% | 1016.5 hPa | 0 mm | - | - | - |
| 1778215320 | 6.11° C | 82% | 1016.5 hPa | 0 mm | - | - | - |
| 1778215320 | 6.11° C | 82% | 1016.5 hPa | 0 mm | - | - | - |
| 1778214178 | 5.56° C | 82% | 1016.5 hPa | 0 mm | - | - | - |
| 1778213040 | 5.56° C | 82% | 1016.4 hPa | 0 mm | - | - | - |
| 1778211899 | 5.56° C | 81% | 1016.3 hPa | 0 mm | - | - | - |
| 1778210760 | 6.11° C | 81% | 1016.3 hPa | 0 mm | - | - | - |
| 1778209619 | 6.11° C | 81% | 1016.3 hPa | 0 mm | - | - | - |
| 1778208478 | 6.11° C | 80% | 1016.2 hPa | 0 mm | - | - | - |
| 1778207339 | 6.67° C | 80% | 1016.2 hPa | 0 mm | - | - | - |
| 1778206199 | 6.67° C | 80% | 1016.2 hPa | 0 mm | - | - | - |
| 1778205060 | 7.22° C | 79% | 1016.2 hPa | 0 mm | - | - | - |
| 1778203919 | 7.78° C | 79% | 1016.3 hPa | 0 mm | - | - | - |
* Rain latest hour (hover to see other rain measurements)
** Current wind speed in m/s (hover to see current wind gust speed)